Time,TemperatureF,DewpointF,PressureIn,WindDirection,WindDirectionDegrees,WindSpeedMPH,WindSpeedGustMPH,Humidity,HourlyPrecipIn,Conditions,Clouds,dailyrainin,SoftwareType,DateUTC
2013-01-15 00:03:00,10.7,6.3,30.42,SW,221,0.0,0.0,82,0.00,,---,0.00,VWS V14.01,2013-01-15 06:03:00,
2013-01-15 00:08:00,10.4,6.0,30.42,SW,221,0.0,0.0,82,0.00,,---,0.00,VWS V14.01,2013-01-15 06:08:00,
2013-01-15 00:13:00,10.2,5.8,30.42,SW,221,0.0,0.0,82,0.00,,---,0.00,VWS V14.01,2013-01-15 06:13:00,
2013-01-15 00:18:00,10.1,5.9,30.42,SW,221,0.0,0.0,83,0.00,,---,0.00,VWS V14.01,2013-01-15 06:18:00,
2013-01-15 00:23:00,10.1,6.2,30.42,SW,221,0.0,0.0,84,0.00,,---,0.00,VWS V14.01,2013-01-15 06:23:00,
2013-01-15 00:28:00,10.0,6.1,30.42,SW,221,0.0,0.0,84,0.00,,---,0.00,VWS V14.01,2013-01-15 06:28:00,
2013-01-15 00:33:00,9.7,5.5,30.42,SW,221,0.0,0.0,83,0.00,,---,0.00,VWS V14.01,2013-01-15 06:33:00,
2013-01-15 00:38:00,9.4,5.2,30.42,SW,221,0.0,0.0,83,0.00,,---,0.00,VWS V14.01,2013-01-15 06:38:00,
2013-01-15 00:43:00,9.4,5.5,30.42,SW,221,0.0,0.0,84,0.00,,---,0.00,VWS V14.01,2013-01-15 06:43:00,
2013-01-15 00:48:00,9.7,6.0,30.42,SW,221,0.0,0.0,85,0.00,,---,0.00,VWS V14.01,2013-01-15 06:48:00,
2013-01-15 00:53:00,9.7,6.0,30.42,SW,221,0.0,0.0,85,0.00,,---,0.00,VWS V14.01,2013-01-15 06:53:00,
2013-01-15 00:58:00,9.8,6.1,30.42,SW,221,0.0,0.0,85,0.00,,---,0.00,VWS V14.01,2013-01-15 06:58:00,
2013-01-15 01:03:00,9.9,6.2,30.42,SW,221,0.0,0.0,85,0.00,,---,0.00,VWS V14.01,2013-01-15 07:03:00,
2013-01-15 01:08:00,9.9,6.2,30.42,SW,221,0.0,0.0,85,0.00,,---,0.00,VWS V14.01,2013-01-15 07:08:00,
2013-01-15 01:13:00,10.1,6.4,30.42,SW,221,0.0,0.0,85,0.00,,---,0.00,VWS V14.01,2013-01-15 07:13:00,
2013-01-15 01:18:00,10.1,6.4,30.42,SW,221,0.0,0.0,85,0.00,,---,0.00,VWS V14.01,2013-01-15 07:18:00,
2013-01-15 01:23:00,10.1,6.4,30.42,SW,221,0.0,0.0,85,0.00,,---,0.00,VWS V14.01,2013-01-15 07:23:00,
2013-01-15 01:28:00,10.2,6.7,30.42,SW,221,0.0,0.0,86,0.00,,---,0.00,VWS V14.01,2013-01-15 07:28:00,
2013-01-15 01:33:00,10.8,7.6,30.42,SW,221,0.0,0.0,86,0.00,,---,0.00,VWS V14.01,2013-01-15 07:33:00,
2013-01-15 01:38:00,11.0,7.5,30.42,SW,221,0.0,0.0,86,0.00,,---,0.00,VWS V14.01,2013-01-15 07:38:00,
2013-01-15 01:43:00,11.0,7.5,30.42,SW,221,0.0,0.0,86,0.00,,---,0.00,VWS V14.01,2013-01-15 07:43:00,
2013-01-15 01:48:00,11.2,7.7,30.42,SW,221,0.0,0.0,86,0.00,,---,0.00,VWS V14.01,2013-01-15 07:48:00,
2013-01-15 01:53:00,11.4,7.9,30.43,SW,221,0.0,0.0,86,0.00,,---,0.00,VWS V14.01,2013-01-15 07:53:00,
2013-01-15 01:58:00,11.6,8.1,30.42,SW,221,0.0,0.0,86,0.00,,---,0.00,VWS V14.01,2013-01-15 07:58:00,
2013-01-15 02:03:00,11.6,7.9,30.43,SW,221,0.0,0.0,85,0.00,,---,0.00,VWS V14.01,2013-01-15 08:03:00,
2013-01-15 02:08:00,11.4,7.7,30.42,SW,221,0.0,0.0,85,0.00,,---,0.00,VWS V14.01,2013-01-15 08:08:00,
2013-01-15 02:13:00,11.5,7.8,30.42,SW,221,0.0,0.0,85,0.00,,---,0.00,VWS V14.01,2013-01-15 08:13:00,
2013-01-15 02:18:00,11.5,7.8,30.42,SW,221,0.0,0.0,85,0.00,,---,0.00,VWS V14.01,2013-01-15 08:18:00,
2013-01-15 02:23:00,11.5,7.8,30.42,SW,221,0.0,0.0,85,0.00,,---,0.00,VWS V14.01,2013-01-15 08:23:00,
2013-01-15 02:28:00,11.4,7.7,30.42,SW,221,0.0,0.0,85,0.00,,---,0.00,VWS V14.01,2013-01-15 08:28:00,
2013-01-15 02:33:00,11.2,7.5,30.42,SW,221,0.0,0.0,85,0.00,,---,0.00,VWS V14.01,2013-01-15 08:33:00,
2013-01-15 02:38:00,11.0,7.3,30.42,SW,221,0.0,0.0,85,0.00,,---,0.00,VWS V14.01,2013-01-15 08:38:00,
2013-01-15 02:43:00,10.7,6.8,30.42,SW,221,0.0,0.0,84,0.00,,---,0.00,VWS V14.01,2013-01-15 08:43:00,
2013-01-15 02:48:00,10.3,6.4,30.42,SW,221,0.0,0.0,84,0.00,,---,0.00,VWS V14.01,2013-01-15 08:48:00,
2013-01-15 02:53:00,10.1,6.4,30.43,SW,221,0.0,0.0,85,0.00,,---,0.00,VWS V14.01,2013-01-15 08:53:00,
2013-01-15 02:58:00,10.0,6.3,30.42,SW,221,0.0,0.0,85,0.00,,---,0.00,VWS V14.01,2013-01-15 08:58:00,
2013-01-15 03:03:00,9.7,6.0,30.42,SW,221,0.0,0.0,85,0.00,,---,0.00,VWS V14.01,2013-01-15 09:03:00,
2013-01-15 03:08:00,9.6,5.9,30.42,SW,221,0.0,0.0,85,0.00,,---,0.00,VWS V14.01,2013-01-15 09:08:00,
2013-01-15 03:13:00,9.7,6.0,30.42,SW,221,0.0,0.0,85,0.00,,---,0.00,VWS V14.01,2013-01-15 09:13:00,
2013-01-15 03:18:00,9.7,6.2,30.42,SW,221,0.0,0.0,86,0.00,,---,0.00,VWS V14.01,2013-01-15 09:18:00,
2013-01-15 03:23:00,9.7,6.0,30.42,SW,221,0.0,0.0,85,0.00,,---,0.00,VWS V14.01,2013-01-15 09:23:00,
2013-01-15 03:28:00,9.7,6.2,30.42,SW,221,0.0,0.0,86,0.00,,---,0.00,VWS V14.01,2013-01-15 09:28:00,
2013-01-15 03:33:00,9.6,5.9,30.42,SW,221,0.0,0.0,85,0.00,,---,0.00,VWS V14.01,2013-01-15 09:33:00,
2013-01-15 03:38:00,9.5,5.8,30.41,SW,221,0.0,0.0,85,0.00,,---,0.00,VWS V14.01,2013-01-15 09:38:00,
2013-01-15 03:43:00,9.3,5.6,30.41,SW,221,0.0,0.0,85,0.00,,---,0.00,VWS V14.01,2013-01-15 09:43:00,
2013-01-15 03:48:00,9.1,5.4,30.41,SW,221,0.0,0.0,85,0.00,,---,0.00,VWS V14.01,2013-01-15 09:48:00,
2013-01-15 03:53:00,9.1,5.4,30.41,SW,221,0.0,0.0,85,0.00,,---,0.00,VWS V14.01,2013-01-15 09:53:00,
2013-01-15 03:58:00,9.0,5.3,30.41,SW,221,0.0,0.0,85,0.00,,---,0.00,VWS V14.01,2013-01-15 09:58:00,
2013-01-15 04:03:00,8.8,5.1,30.41,SW,221,0.0,0.0,85,0.00,,---,0.00,VWS V14.01,2013-01-15 10:03:00,
2013-01-15 04:08:00,8.7,5.0,30.41,SW,221,0.0,0.0,85,0.00,,---,0.00,VWS V14.01,2013-01-15 10:08:00,
2013-01-15 04:13:00,8.5,4.8,30.40,SW,221,0.0,0.0,85,0.00,,---,0.00,VWS V14.01,2013-01-15 10:13:00,
2013-01-15 04:18:00,8.5,4.8,30.40,SW,221,0.0,0.0,85,0.00,,---,0.00,VWS V14.01,2013-01-15 10:18:00,
2013-01-15 04:23:00,8.4,5.0,30.40,SW,221,0.0,0.0,86,0.00,,---,0.00,VWS V14.01,2013-01-15 10:23:00,
2013-01-15 04:28:00,8.4,5.0,30.40,SW,221,0.0,0.0,86,0.00,,---,0.00,VWS V14.01,2013-01-15 10:28:00,
2013-01-15 04:33:00,8.1,4.7,30.39,SW,221,0.0,0.0,86,0.00,,---,0.00,VWS V14.01,2013-01-15 10:33:00,
2013-01-15 04:38:00,7.9,4.2,30.39,SW,221,0.0,0.0,85,0.00,,---,0.00,VWS V14.01,2013-01-15 10:38:00,
2013-01-15 04:43:00,7.8,4.4,30.40,SW,221,0.0,0.0,86,0.00,,---,0.00,VWS V14.01,2013-01-15 10:43:00,
2013-01-15 04:48:00,7.7,4.3,30.40,SW,221,0.0,0.0,86,0.00,,---,0.00,VWS V14.01,2013-01-15 10:48:00,
2013-01-15 04:53:00,7.8,4.4,30.40,SW,221,0.0,0.0,86,0.00,,---,0.00,VWS V14.01,2013-01-15 10:53:00,
2013-01-15 04:58:00,7.8,4.4,30.40,SW,221,0.0,0.0,86,0.00,,---,0.00,VWS V14.01,2013-01-15 10:58:00,
2013-01-15 05:03:00,7.5,4.1,30.39,SW,221,0.0,0.0,86,0.00,,---,0.00,VWS V14.01,2013-01-15 11:03:00,
2013-01-15 05:08:00,7.5,4.1,30.39,SW,221,0.0,0.0,86,0.00,,---,0.00,VWS V14.01,2013-01-15 11:08:00,
2013-01-15 05:13:00,7.7,4.3,30.39,SW,221,0.0,0.0,86,0.00,,---,0.00,VWS V14.01,2013-01-15 11:13:00,
2013-01-15 05:18:00,7.8,4.4,30.39,SW,221,0.0,0.0,86,0.00,,---,0.00,VWS V14.01,2013-01-15 11:18:00,
2013-01-15 05:23:00,7.8,4.4,30.39,SW,221,0.0,0.0,86,0.00,,---,0.00,VWS V14.01,2013-01-15 11:23:00,
2013-01-15 05:28:00,7.7,4.3,30.40,SW,221,0.0,0.0,86,0.00,,---,0.00,VWS V14.01,2013-01-15 11:28:00,
2013-01-15 05:33:00,7.5,4.1,30.40,SW,221,0.0,0.0,86,0.00,,---,0.00,VWS V14.01,2013-01-15 11:33:00,
2013-01-15 05:38:00,7.4,4.0,30.40,SW,221,0.0,0.0,86,0.00,,---,0.00,VWS V14.01,2013-01-15 11:38:00,
2013-01-15 05:43:00,7.4,4.0,30.40,SW,221,0.0,0.0,86,0.00,,---,0.00,VWS V14.01,2013-01-15 11:43:00,
2013-01-15 05:47:00,7.4,4.0,30.40,SW,221,0.0,0.0,86,0.00,,---,0.00,VWS V14.01,2013-01-15 11:47:00,
2013-01-15 05:52:00,7.5,4.1,30.39,SW,221,0.0,0.0,86,0.00,,---,0.00,VWS V14.01,2013-01-15 11:52:00,
2013-01-15 05:57:00,7.6,4.2,30.39,SW,221,0.0,0.0,86,0.00,,---,0.00,VWS V14.01,2013-01-15 11:57:00,
2013-01-15 06:02:00,7.7,4.3,30.39,SW,221,0.0,0.0,86,0.00,,---,0.00,VWS V14.01,2013-01-15 12:02:00,
2013-01-15 06:07:00,7.5,3.8,30.39,SW,221,0.0,0.0,85,0.00,,---,0.00,VWS V14.01,2013-01-15 12:07:00,
2013-01-15 06:12:00,7.3,3.7,30.39,SW,221,0.0,0.0,85,0.00,,---,0.00,VWS V14.01,2013-01-15 12:12:00,
2013-01-15 06:17:00,7.2,3.5,30.38,SW,221,0.0,0.0,85,0.00,,---,0.00,VWS V14.01,2013-01-15 12:17:00,
2013-01-15 06:22:00,7.2,3.5,30.39,SW,221,0.0,0.0,85,0.00,,---,0.00,VWS V14.01,2013-01-15 12:22:00,
2013-01-15 06:27:00,7.3,3.7,30.39,SW,221,0.0,0.0,85,0.00,,---,0.00,VWS V14.01,2013-01-15 12:27:00,
2013-01-15 06:32:00,7.3,3.7,30.39,SW,221,0.0,0.0,85,0.00,,---,0.00,VWS V14.01,2013-01-15 12:32:00,
2013-01-15 06:37:00,7.2,3.5,30.40,SW,221,0.0,0.0,85,0.00,,---,0.00,VWS V14.01,2013-01-15 12:37:00,
2013-01-15 06:42:00,7.0,3.4,30.40,SW,221,0.0,0.0,85,0.00,,---,0.00,VWS V14.01,2013-01-15 12:42:00,
2013-01-15 06:47:00,6.9,3.3,30.40,SW,221,0.0,0.0,85,0.00,,---,0.00,VWS V14.01,2013-01-15 12:47:00,
2013-01-15 06:52:00,7.0,3.4,30.40,SW,221,0.0,0.0,85,0.00,,---,0.00,VWS V14.01,2013-01-15 12:52:00,
2013-01-15 06:57:00,7.0,3.4,30.40,SW,221,0.0,0.0,85,0.00,,---,0.00,VWS V14.01,2013-01-15 12:57:00,
2013-01-15 07:02:00,7.2,3.5,30.39,SW,221,0.0,0.0,85,0.00,,---,0.00,VWS V14.01,2013-01-15 13:02:00,
2013-01-15 07:07:00,7.1,3.5,30.40,SW,221,0.0,0.0,85,0.00,,---,0.00,VWS V14.01,2013-01-15 13:07:00,
2013-01-15 07:12:00,7.0,3.4,30.40,SW,221,0.0,0.0,85,0.00,,---,0.00,VWS V14.01,2013-01-15 13:12:00,
2013-01-15 07:17:00,6.8,3.2,30.40,SW,221,0.0,0.0,85,0.00,,---,0.00,VWS V14.01,2013-01-15 13:17:00,
2013-01-15 07:22:00,6.9,3.3,30.40,SW,221,0.0,0.0,85,0.00,,---,0.00,VWS V14.01,2013-01-15 13:22:00,
2013-01-15 07:27:00,7.1,3.5,30.40,SW,221,0.0,0.0,85,0.00,,---,0.00,VWS V14.01,2013-01-15 13:27:00,
2013-01-15 07:32:00,7.1,3.5,30.39,SW,221,0.0,0.0,85,0.00,,---,0.00,VWS V14.01,2013-01-15 13:32:00,
2013-01-15 07:37:00,7.2,3.5,30.39,SW,221,0.0,0.0,85,0.00,,---,0.00,VWS V14.01,2013-01-15 13:37:00,
2013-01-15 07:42:00,7.3,3.7,30.40,SW,221,0.0,0.0,85,0.00,,---,0.00,VWS V14.01,2013-01-15 13:42:00,
2013-01-15 07:47:00,7.5,3.8,30.40,SW,221,0.0,0.0,85,0.00,,---,0.00,VWS V14.01,2013-01-15 13:47:00,
2013-01-15 07:52:00,7.7,4.1,30.40,SW,221,0.0,0.0,85,0.00,,---,0.00,VWS V14.01,2013-01-15 13:52:00,
2013-01-15 07:57:00,8.1,4.4,30.40,SW,221,0.0,0.0,85,0.00,,---,0.00,VWS V14.01,2013-01-15 13:57:00,
2013-01-15 08:02:00,8.5,4.8,30.41,SW,220,0.0,0.0,85,0.00,,---,0.00,VWS V14.01,2013-01-15 14:02:00,
2013-01-15 08:07:00,8.9,5.2,30.41,SW,214,0.0,0.0,85,0.00,,---,0.00,VWS V14.01,2013-01-15 14:07:00,
2013-01-15 08:12:00,9.3,5.9,30.41,SE,134,0.0,0.0,86,0.00,,---,0.00,VWS V14.01,2013-01-15 14:12:00,
2013-01-15 08:17:00,9.7,6.0,30.41,SE,134,0.0,0.0,85,0.00,,---,0.00,VWS V14.01,2013-01-15 14:17:00,
2013-01-15 08:22:00,10.0,6.3,30.42,SE,134,0.0,0.0,85,0.00,,---,0.00,VWS V14.01,2013-01-15 14:22:00,
2013-01-15 08:27:00,10.4,6.7,30.42,SE,134,0.0,0.0,85,0.00,,---,0.00,VWS V14.01,2013-01-15 14:27:00,
2013-01-15 08:32:00,10.7,7.0,30.42,SE,134,0.0,0.0,85,0.00,,---,0.00,VWS V14.01,2013-01-15 14:32:00,
2013-01-15 08:37:00,10.9,7.2,30.42,SE,134,0.0,0.0,85,0.00,,---,0.00,VWS V14.01,2013-01-15 14:37:00,
2013-01-15 08:42:00,11.3,7.6,30.42,SE,134,0.0,0.0,85,0.00,,---,0.00,VWS V14.01,2013-01-15 14:42:00,
2013-01-15 08:47:00,11.5,7.8,30.42,SE,134,0.0,0.0,85,0.00,,---,0.00,VWS V14.01,2013-01-15 14:47:00,
2013-01-15 08:52:00,11.7,8.0,30.43,SE,134,0.0,0.0,85,0.00,,---,0.00,VWS V14.01,2013-01-15 14:52:00,
2013-01-15 08:57:00,12.0,8.3,30.43,SE,134,0.0,0.0,85,0.00,,---,0.00,VWS V14.01,2013-01-15 14:57:00,
2013-01-15 09:02:00,12.3,8.3,30.42,SE,125,0.0,0.0,84,0.00,,---,0.00,VWS V14.01,2013-01-15 15:02:00,
2013-01-15 09:07:00,12.7,8.7,30.43,ESE,115,0.0,0.0,84,0.00,,---,0.00,VWS V14.01,2013-01-15 15:07:00,
2013-01-15 09:12:00,13.1,9.1,30.42,ESE,116,0.0,0.0,84,0.00,,---,0.00,VWS V14.01,2013-01-15 15:12:00,
2013-01-15 09:17:00,13.6,9.6,30.43,ESE,110,0.0,3.6,84,0.00,,---,0.00,VWS V14.01,2013-01-15 15:17:00,
2013-01-15 09:22:00,14.0,9.7,30.43,SSE,167,0.0,1.8,83,0.00,,---,0.00,VWS V14.01,2013-01-15 15:22:00,
2013-01-15 09:27:00,14.4,10.1,30.42,SE,132,0.0,0.0,83,0.00,,---,0.00,VWS V14.01,2013-01-15 15:27:00,
2013-01-15 09:32:00,14.7,10.4,30.42,SSE,153,0.0,1.8,83,0.00,,---,0.00,VWS V14.01,2013-01-15 15:32:00,
2013-01-15 09:37:00,15.0,10.5,30.42,SW,221,1.8,1.8,82,0.00,,---,0.00,VWS V14.01,2013-01-15 15:37:00,
2013-01-15 09:42:00,15.6,11.1,30.42,ESE,105,1.8,1.8,82,0.00,,---,0.00,VWS V14.01,2013-01-15 15:42:00,
2013-01-15 09:47:00,16.1,11.3,30.41,ESE,115,0.0,3.6,81,0.00,,---,0.00,VWS V14.01,2013-01-15 15:47:00,
2013-01-15 09:52:00,16.6,11.8,30.42,ESE,120,0.0,1.8,81,0.00,,---,0.00,VWS V14.01,2013-01-15 15:52:00,
2013-01-15 09:57:00,17.3,12.2,30.41,SE,144,1.8,1.8,80,0.00,,---,0.00,VWS V14.01,2013-01-15 15:57:00,
2013-01-15 10:02:00,17.7,12.3,30.41,ESE,123,0.0,1.8,79,0.00,,---,0.00,VWS V14.01,2013-01-15 16:02:00,
2013-01-15 10:07:00,18.2,12.5,30.41,ESE,113,0.0,0.0,78,0.00,,---,0.00,VWS V14.01,2013-01-15 16:07:00,
2013-01-15 10:12:00,18.7,12.8,30.40,East,99,0.0,3.6,77,0.00,,---,0.00,VWS V14.01,2013-01-15 16:12:00,
2013-01-15 10:17:00,19.0,12.8,30.39,East,98,1.8,1.8,76,0.00,,---,0.00,VWS V14.01,2013-01-15 16:17:00,
2013-01-15 10:22:00,19.3,13.1,30.39,ESE,117,0.0,1.8,76,0.00,,---,0.00,VWS V14.01,2013-01-15 16:22:00,
2013-01-15 10:27:00,19.7,13.2,30.38,SE,127,0.0,0.0,75,0.00,,---,0.00,VWS V14.01,2013-01-15 16:27:00,
2013-01-15 10:32:00,19.9,12.8,30.38,ESE,108,0.0,1.8,73,0.00,,---,0.00,VWS V14.01,2013-01-15 16:32:00,
2013-01-15 10:37:00,20.3,13.2,30.37,ESE,118,1.8,1.8,73,0.00,,---,0.00,VWS V14.01,2013-01-15 16:37:00,
2013-01-15 10:42:00,20.8,13.4,30.36,SE,144,0.0,1.8,73,0.00,,---,0.00,VWS V14.01,2013-01-15 16:42:00,
2013-01-15 10:47:00,21.1,13.4,30.36,NNE,30,0.0,0.0,72,0.00,,---,0.00,VWS V14.01,2013-01-15 16:47:00,
2013-01-15 10:52:00,21.6,13.6,30.37,SW,215,1.8,3.6,71,0.00,,---,0.00,VWS V14.01,2013-01-15 16:52:00,
2013-01-15 10:57:00,22.2,14.1,30.37,ESE,115,3.6,3.6,71,0.00,,---,0.00,VWS V14.01,2013-01-15 16:57:00,
2013-01-15 11:02:00,22.7,14.0,30.37,ESE,103,1.8,3.6,69,0.00,,---,0.00,VWS V14.01,2013-01-15 17:02:00,
2013-01-15 11:07:00,22.9,14.5,30.38,South,179,1.8,3.6,70,0.00,,---,0.00,VWS V14.01,2013-01-15 17:07:00,
2013-01-15 11:12:00,23.3,14.3,30.38,SSW,207,1.8,5.4,68,0.00,,---,0.00,VWS V14.01,2013-01-15 17:12:00,
2013-01-15 11:17:00,23.8,15.1,30.38,SE,124,0.0,7.2,69,0.00,,---,0.00,VWS V14.01,2013-01-15 17:17:00,
2013-01-15 11:22:00,24.5,15.4,30.38,SSW,198,3.6,5.4,68,0.00,,---,0.00,VWS V14.01,2013-01-15 17:22:00,
2013-01-15 11:27:00,25.0,14.6,30.38,SSE,160,1.8,5.4,64,0.00,,---,0.00,VWS V14.01,2013-01-15 17:27:00,
2013-01-15 11:32:00,25.4,15.0,30.38,East,98,0.0,5.4,64,0.00,,---,0.00,VWS V14.01,2013-01-15 17:32:00,
2013-01-15 11:37:00,25.8,14.7,30.37,SSW,207,3.6,5.4,62,0.00,,---,0.00,VWS V14.01,2013-01-15 17:37:00,
2013-01-15 11:42:00,26.3,14.8,30.37,SW,232,3.6,7.2,61,0.00,,---,0.00,VWS V14.01,2013-01-15 17:42:00,
2013-01-15 11:47:00,26.4,13.9,30.36,SSW,198,0.0,5.4,59,0.00,,---,0.00,VWS V14.01,2013-01-15 17:47:00,
2013-01-15 11:52:00,26.6,13.7,30.36,SSW,197,0.0,3.6,58,0.00,,---,0.00,VWS V14.01,2013-01-15 17:52:00,
2013-01-15 11:57:00,27.1,14.5,30.35,SSW,193,0.0,1.8,59,0.00,,---,0.00,VWS V14.01,2013-01-15 17:57:00,
2013-01-15 12:02:00,27.2,13.9,30.35,West,259,0.0,1.8,57,0.00,,---,0.00,VWS V14.01,2013-01-15 18:02:00,
2013-01-15 12:07:00,27.5,14.2,30.34,ESE,117,0.0,1.8,57,0.00,,---,0.00,VWS V14.01,2013-01-15 18:07:00,
2013-01-15 12:12:00,27.9,14.6,30.33,ESE,117,1.8,1.8,57,0.00,,---,0.00,VWS V14.01,2013-01-15 18:12:00,
2013-01-15 12:17:00,28.0,13.5,30.32,East,94,3.6,7.2,54,0.00,,---,0.00,VWS V14.01,2013-01-15 18:17:00,
2013-01-15 12:22:00,27.9,13.4,30.32,ESE,113,5.4,7.2,54,0.00,,---,0.00,VWS V14.01,2013-01-15 18:22:00,
2013-01-15 12:27:00,28.0,13.1,30.32,SSW,211,0.0,5.4,53,0.00,,---,0.00,VWS V14.01,2013-01-15 18:27:00,
2013-01-15 12:32:00,28.3,13.4,30.32,SSW,198,1.8,3.6,53,0.00,,---,0.00,VWS V14.01,2013-01-15 18:32:00,
2013-01-15 12:37:00,29.0,13.6,30.32,ESE,102,1.8,3.6,52,0.00,,---,0.00,VWS V14.01,2013-01-15 18:37:00,
2013-01-15 12:42:00,29.1,13.3,30.31,SW,215,0.0,3.6,51,0.00,,---,0.00,VWS V14.01,2013-01-15 18:42:00,
2013-01-15 12:47:00,29.4,14.4,30.31,ESE,114,3.6,7.2,53,0.00,,---,0.00,VWS V14.01,2013-01-15 18:47:00,
2013-01-15 12:52:00,29.3,14.3,30.30,West,264,1.8,5.4,53,0.00,,---,0.00,VWS V14.01,2013-01-15 18:52:00,
2013-01-15 12:57:00,29.6,14.6,30.30,SSW,194,0.0,5.4,53,0.00,,---,0.00,VWS V14.01,2013-01-15 18:57:00,
2013-01-15 13:02:00,30.2,15.1,30.30,SSE,167,0.0,3.6,53,0.00,,---,0.00,VWS V14.01,2013-01-15 19:02:00,
2013-01-15 13:07:00,30.1,15.1,30.30,SW,214,0.0,1.8,53,0.00,,---,0.00,VWS V14.01,2013-01-15 19:07:00,
2013-01-15 13:12:00,29.9,14.5,30.30,ESE,122,1.8,7.2,52,0.00,,---,0.00,VWS V14.01,2013-01-15 19:12:00,
2013-01-15 13:17:00,29.6,14.6,30.30,SSW,208,0.0,1.8,53,0.00,,---,0.00,VWS V14.01,2013-01-15 19:17:00,
2013-01-15 13:22:00,30.0,15.0,30.30,SSW,201,3.6,5.4,53,0.00,,---,0.00,VWS V14.01,2013-01-15 19:22:00,
2013-01-15 13:27:00,30.2,15.1,30.30,SW,220,7.2,7.2,53,0.00,,---,0.00,VWS V14.01,2013-01-15 19:27:00,
2013-01-15 13:32:00,29.8,14.8,30.30,WSW,243,10.8,10.8,53,0.00,,---,0.00,VWS V14.01,2013-01-15 19:32:00,
2013-01-15 13:37:00,29.5,14.1,30.29,South,181,5.4,7.2,52,0.00,,---,0.00,VWS V14.01,2013-01-15 19:37:00,
2013-01-15 13:42:00,29.6,14.2,30.29,WSW,250,1.8,7.2,52,0.00,,---,0.00,VWS V14.01,2013-01-15 19:42:00,
2013-01-15 13:47:00,29.6,14.2,30.29,SE,136,1.8,5.4,52,0.00,,---,0.00,VWS V14.01,2013-01-15 19:47:00,
2013-01-15 13:52:00,29.3,13.9,30.29,SE,130,9.0,9.0,52,0.00,,---,0.00,VWS V14.01,2013-01-15 19:52:00,
2013-01-15 13:57:00,29.0,14.4,30.29,SW,217,1.8,7.2,54,0.00,,---,0.00,VWS V14.01,2013-01-15 19:57:00,
2013-01-15 14:02:00,28.9,13.9,30.29,SE,127,0.0,7.2,53,0.00,,---,0.00,VWS V14.01,2013-01-15 20:02:00,
2013-01-15 14:07:00,29.1,14.1,30.29,WSW,242,1.8,7.2,53,0.00,,---,0.00,VWS V14.01,2013-01-15 20:07:00,
2013-01-15 14:12:00,29.3,13.1,30.29,SE,139,3.6,12.6,50,0.00,,---,0.00,VWS V14.01,2013-01-15 20:12:00,
2013-01-15 14:17:00,29.1,13.3,30.29,SSW,194,0.0,7.2,51,0.00,,---,0.00,VWS V14.01,2013-01-15 20:17:00,
2013-01-15 14:22:00,29.3,13.9,30.29,SW,217,1.8,5.4,52,0.00,,---,0.00,VWS V14.01,2013-01-15 20:22:00,
2013-01-15 14:27:00,29.3,14.3,30.29,SSW,208,3.6,5.4,53,0.00,,---,0.00,VWS V14.01,2013-01-15 20:27:00,
2013-01-15 14:32:00,29.2,14.6,30.29,SSE,165,1.8,9.0,54,0.00,,---,0.00,VWS V14.01,2013-01-15 20:32:00,
2013-01-15 14:37:00,29.3,15.1,30.29,SW,219,1.8,3.6,55,0.00,,---,0.00,VWS V14.01,2013-01-15 20:37:00,
2013-01-15 14:42:00,29.2,13.4,30.29,SSW,203,3.6,9.0,51,0.00,,---,0.00,VWS V14.01,2013-01-15 20:42:00,
2013-01-15 14:47:00,29.2,13.8,30.29,WSW,241,3.6,7.2,52,0.00,,---,0.00,VWS V14.01,2013-01-15 20:47:00,
2013-01-15 14:52:00,29.1,14.1,30.29,SSW,207,3.6,7.2,53,0.00,,---,0.00,VWS V14.01,2013-01-15 20:52:00,
2013-01-15 14:57:00,29.0,14.4,30.29,SE,124,0.0,5.4,54,0.00,,---,0.00,VWS V14.01,2013-01-15 20:57:00,
2013-01-15 15:02:00,29.1,14.5,30.29,SSW,204,3.6,7.2,54,0.00,,---,0.00,VWS V14.01,2013-01-15 21:02:00,
2013-01-15 15:07:00,29.2,14.6,30.29,South,177,5.4,9.0,54,0.00,,---,0.00,VWS V14.01,2013-01-15 21:07:00,
2013-01-15 15:12:00,28.9,13.5,30.29,SW,228,3.6,9.0,52,0.00,,---,0.00,VWS V14.01,2013-01-15 21:12:00,
2013-01-15 15:17:00,28.6,14.1,30.29,SW,226,1.8,5.4,54,0.00,,---,0.00,VWS V14.01,2013-01-15 21:17:00,
2013-01-15 15:22:00,28.5,13.6,30.29,SSE,166,3.6,5.4,53,0.00,,---,0.00,VWS V14.01,2013-01-15 21:22:00,
2013-01-15 15:27:00,28.4,13.5,30.29,SSW,208,5.4,7.2,53,0.00,,---,0.00,VWS V14.01,2013-01-15 21:27:00,
2013-01-15 15:32:00,28.1,14.0,30.29,SSE,159,3.6,10.8,55,0.00,,---,0.00,VWS V14.01,2013-01-15 21:32:00,
2013-01-15 15:37:00,28.0,14.3,30.29,SW,221,5.4,7.2,56,0.00,,---,0.00,VWS V14.01,2013-01-15 21:37:00,
2013-01-15 15:42:00,27.9,13.0,30.29,WSW,256,3.6,5.4,53,0.00,,---,0.00,VWS V14.01,2013-01-15 21:42:00,
2013-01-15 15:47:00,27.9,13.0,30.29,South,172,1.8,5.4,53,0.00,,---,0.00,VWS V14.01,2013-01-15 21:47:00,
2013-01-15 15:52:00,28.2,14.1,30.29,SW,224,3.6,3.6,55,0.00,,---,0.00,VWS V14.01,2013-01-15 21:52:00,
2013-01-15 15:57:00,28.0,13.9,30.29,WSW,249,0.0,1.8,55,0.00,,---,0.00,VWS V14.01,2013-01-15 21:57:00,
2013-01-15 16:02:00,27.5,13.8,30.29,WSW,245,3.6,3.6,56,0.00,,---,0.00,VWS V14.01,2013-01-15 22:02:00,
2013-01-15 16:07:00,27.2,14.3,30.29,South,191,1.8,3.6,58,0.00,,---,0.00,VWS V14.01,2013-01-15 22:07:00,
2013-01-15 16:12:00,27.0,14.4,30.29,SW,229,1.8,3.6,59,0.00,,---,0.00,VWS V14.01,2013-01-15 22:12:00,
2013-01-15 16:17:00,26.7,14.5,30.29,South,174,3.6,5.4,60,0.00,,---,0.00,VWS V14.01,2013-01-15 22:17:00,
2013-01-15 16:22:00,26.5,14.3,30.29,SSW,201,1.8,3.6,60,0.00,,---,0.00,VWS V14.01,2013-01-15 22:22:00,
2013-01-15 16:27:00,26.3,14.5,30.28,SSW,208,1.8,1.8,60,0.00,,---,0.00,VWS V14.01,2013-01-15 22:27:00,
2013-01-15 16:32:00,26.0,14.2,30.28,SSW,200,3.6,5.4,60,0.00,,---,0.00,VWS V14.01,2013-01-15 22:32:00,
2013-01-15 16:37:00,25.9,14.1,30.28,SW,219,1.8,3.6,60,0.00,,---,0.00,VWS V14.01,2013-01-15 22:37:00,
2013-01-15 16:42:00,25.7,14.3,30.28,SSW,207,3.6,3.6,61,0.00,,---,0.00,VWS V14.01,2013-01-15 22:42:00,
2013-01-15 16:47:00,25.5,14.1,30.28,SSW,198,0.0,1.8,61,0.00,,---,0.00,VWS V14.01,2013-01-15 22:47:00,
2013-01-15 16:52:00,25.2,13.8,30.28,SSW,204,0.0,0.0,61,0.00,,---,0.00,VWS V14.01,2013-01-15 22:52:00,
2013-01-15 16:57:00,25.0,13.9,30.28,SSW,204,0.0,0.0,62,0.00,,---,0.00,VWS V14.01,2013-01-15 22:57:00,
2013-01-15 17:02:00,24.7,14.0,30.28,SSW,197,0.0,3.6,63,0.00,,---,0.00,VWS V14.01,2013-01-15 23:02:00,
2013-01-15 17:07:00,24.5,13.8,30.28,SW,214,0.0,0.0,63,0.00,,---,0.00,VWS V14.01,2013-01-15 23:07:00,
2013-01-15 17:12:00,24.2,13.9,30.28,SSW,211,0.0,1.8,64,0.00,,---,0.00,VWS V14.01,2013-01-15 23:12:00,
2013-01-15 17:17:00,24.0,13.7,30.27,SSW,210,1.8,1.8,64,0.00,,---,0.00,VWS V14.01,2013-01-15 23:17:00,
2013-01-15 17:22:00,23.8,13.8,30.27,SSW,207,0.0,0.0,65,0.00,,---,0.00,VWS V14.01,2013-01-15 23:22:00,
2013-01-15 17:27:00,23.6,13.6,30.27,SSW,203,0.0,0.0,65,0.00,,---,0.00,VWS V14.01,2013-01-15 23:27:00,
2013-01-15 17:32:00,23.3,13.6,30.27,SSW,203,0.0,0.0,66,0.00,,---,0.00,VWS V14.01,2013-01-15 23:32:00,
2013-01-15 17:37:00,22.9,13.3,30.27,SSW,203,0.0,0.0,66,0.00,,---,0.00,VWS V14.01,2013-01-15 23:37:00,
2013-01-15 17:42:00,22.4,13.4,30.27,SSW,203,0.0,0.0,68,0.00,,---,0.00,VWS V14.01,2013-01-15 23:42:00,
2013-01-15 17:47:00,22.1,13.4,30.27,SSW,203,0.0,0.0,69,0.00,,---,0.00,VWS V14.01,2013-01-15 23:47:00,
2013-01-15 17:52:00,21.7,13.4,30.26,SSW,203,0.0,0.0,70,0.00,,---,0.00,VWS V14.01,2013-01-15 23:52:00,
2013-01-15 17:57:00,21.3,13.3,30.26,SSW,203,0.0,0.0,71,0.00,,---,0.00,VWS V14.01,2013-01-15 23:57:00,
2013-01-15 18:02:00,20.9,13.2,30.26,SSW,203,0.0,0.0,72,0.00,,---,0.00,VWS V14.01,2013-01-16 00:02:00,
2013-01-15 18:07:00,20.6,13.2,30.25,SSW,203,0.0,0.0,73,0.00,,---,0.00,VWS V14.01,2013-01-16 00:07:00,
2013-01-15 18:12:00,20.5,13.4,30.25,SW,221,0.0,0.0,73,0.00,,---,0.00,VWS V14.01,2013-01-16 00:12:00,
2013-01-15 18:17:00,20.8,13.7,30.25,SSW,204,0.0,0.0,73,0.00,,---,0.00,VWS V14.01,2013-01-16 00:17:00,
2013-01-15 18:22:00,21.0,13.6,30.25,SSW,210,0.0,0.0,73,0.00,,---,0.00,VWS V14.01,2013-01-16 00:22:00,
2013-01-15 18:27:00,20.9,13.5,30.25,SSW,210,0.0,0.0,73,0.00,,---,0.00,VWS V14.01,2013-01-16 00:27:00,
2013-01-15 18:32:00,20.7,13.6,30.24,SW,221,0.0,0.0,73,0.00,,---,0.00,VWS V14.01,2013-01-16 00:32:00,
2013-01-15 18:37:00,20.5,13.4,30.24,SW,221,0.0,0.0,73,0.00,,---,0.00,VWS V14.01,2013-01-16 00:37:00,
2013-01-15 18:42:00,20.0,12.9,30.24,SW,221,0.0,0.0,73,0.00,,---,0.00,VWS V14.01,2013-01-16 00:42:00,
2013-01-15 18:47:00,19.6,12.8,30.24,SW,221,0.0,0.0,74,0.00,,---,0.00,VWS V14.01,2013-01-16 00:47:00,
2013-01-15 18:52:00,19.2,12.7,30.23,SW,221,0.0,0.0,75,0.00,,---,0.00,VWS V14.01,2013-01-16 00:52:00,
2013-01-15 18:57:00,18.8,12.3,30.23,SW,221,0.0,0.0,75,0.00,,---,0.00,VWS V14.01,2013-01-16 00:57:00,
2013-01-15 19:02:00,18.4,11.9,30.23,SW,221,0.0,0.0,75,0.00,,---,0.00,VWS V14.01,2013-01-16 01:02:00,
2013-01-15 19:07:00,17.8,11.6,30.23,SW,221,0.0,0.0,76,0.00,,---,0.00,VWS V14.01,2013-01-16 01:07:00,
2013-01-15 19:12:00,17.4,11.5,30.23,SW,221,0.0,0.0,77,0.00,,---,0.00,VWS V14.01,2013-01-16 01:12:00,
2013-01-15 19:17:00,17.3,11.9,30.22,SW,221,0.0,0.0,79,0.00,,---,0.00,VWS V14.01,2013-01-16 01:17:00,
2013-01-15 19:22:00,17.5,12.4,30.22,SW,221,0.0,0.0,80,0.00,,---,0.00,VWS V14.01,2013-01-16 01:22:00,
2013-01-15 19:27:00,17.5,12.4,30.21,SW,221,0.0,0.0,80,0.00,,---,0.00,VWS V14.01,2013-01-16 01:27:00,
2013-01-15 19:32:00,17.6,12.8,30.21,SW,217,0.0,0.0,81,0.00,,---,0.00,VWS V14.01,2013-01-16 01:32:00,
2013-01-15 19:37:00,17.6,12.5,30.21,SW,217,0.0,0.0,80,0.00,,---,0.00,VWS V14.01,2013-01-16 01:37:00,
2013-01-15 19:42:00,17.4,12.3,30.21,SW,217,0.0,0.0,80,0.00,,---,0.00,VWS V14.01,2013-01-16 01:42:00,
2013-01-15 19:47:00,17.5,12.6,30.21,SW,216,0.0,0.0,81,0.00,,---,0.00,VWS V14.01,2013-01-16 01:47:00,
2013-01-15 19:52:00,17.7,13.1,30.21,SW,217,0.0,0.0,82,0.00,,---,0.00,VWS V14.01,2013-01-16 01:52:00,
2013-01-15 19:57:00,17.8,12.9,30.20,SW,217,0.0,0.0,81,0.00,,---,0.00,VWS V14.01,2013-01-16 01:57:00,
2013-01-15 20:02:00,17.8,12.9,30.20,SW,217,0.0,0.0,81,0.00,,---,0.00,VWS V14.01,2013-01-16 02:02:00,
2013-01-15 20:07:00,17.6,12.5,30.19,SW,217,0.0,0.0,80,0.00,,---,0.00,VWS V14.01,2013-01-16 02:07:00,
2013-01-15 20:12:00,17.5,12.4,30.19,SW,216,0.0,0.0,80,0.00,,---,0.00,VWS V14.01,2013-01-16 02:12:00,
2013-01-15 20:17:00,17.4,12.6,30.19,SW,216,0.0,0.0,81,0.00,,---,0.00,VWS V14.01,2013-01-16 02:17:00,
2013-01-15 20:22:00,17.1,12.0,30.19,SW,217,0.0,0.0,80,0.00,,---,0.00,VWS V14.01,2013-01-16 02:22:00,
2013-01-15 20:27:00,17.1,12.3,30.19,SW,217,0.0,0.0,81,0.00,,---,0.00,VWS V14.01,2013-01-16 02:27:00,
2013-01-15 20:32:00,17.5,12.6,30.19,SW,217,0.0,0.0,81,0.00,,---,0.00,VWS V14.01,2013-01-16 02:32:00,
2013-01-15 20:37:00,17.6,12.5,30.18,SW,216,0.0,0.0,80,0.00,,---,0.00,VWS V14.01,2013-01-16 02:37:00,
2013-01-15 20:42:00,17.3,12.2,30.18,SW,217,0.0,0.0,80,0.00,,---,0.00,VWS V14.01,2013-01-16 02:42:00,
2013-01-15 20:47:00,16.7,11.4,30.18,SW,216,0.0,0.0,79,0.00,,---,0.00,VWS V14.01,2013-01-16 02:47:00,
2013-01-15 20:52:00,16.3,11.2,30.18,SW,217,0.0,0.0,80,0.00,,---,0.00,VWS V14.01,2013-01-16 02:52:00,
2013-01-15 20:57:00,16.5,11.9,30.18,SW,217,0.0,0.0,82,0.00,,---,0.00,VWS V14.01,2013-01-16 02:57:00,
2013-01-15 21:02:00,16.7,12.1,30.18,SW,217,0.0,0.0,82,0.00,,---,0.00,VWS V14.01,2013-01-16 03:02:00,
2013-01-15 21:07:00,16.6,11.8,30.17,SW,217,0.0,0.0,81,0.00,,---,0.00,VWS V14.01,2013-01-16 03:07:00,
2013-01-15 21:12:00,16.4,11.6,30.17,SW,216,0.0,0.0,81,0.00,,---,0.00,VWS V14.01,2013-01-16 03:12:00,
2013-01-15 21:17:00,16.2,11.6,30.17,SW,217,0.0,0.0,82,0.00,,---,0.00,VWS V14.01,2013-01-16 03:17:00,
2013-01-15 21:22:00,15.9,11.1,30.17,SW,217,0.0,0.0,81,0.00,,---,0.00,VWS V14.01,2013-01-16 03:22:00,
2013-01-15 21:27:00,15.5,10.9,30.17,SW,217,0.0,0.0,82,0.00,,---,0.00,VWS V14.01,2013-01-16 03:27:00,
2013-01-15 21:32:00,15.6,11.3,30.17,SW,217,0.0,0.0,83,0.00,,---,0.00,VWS V14.01,2013-01-16 03:32:00,
2013-01-15 21:37:00,15.4,11.1,30.17,SW,217,0.0,0.0,83,0.00,,---,0.00,VWS V14.01,2013-01-16 03:37:00,
2013-01-15 21:42:00,15.2,10.9,30.16,SW,217,0.0,0.0,83,0.00,,---,0.00,VWS V14.01,2013-01-16 03:42:00,
2013-01-15 21:47:00,14.9,10.6,30.16,SW,217,0.0,0.0,83,0.00,,---,0.00,VWS V14.01,2013-01-16 03:47:00,
2013-01-15 21:52:00,14.4,9.9,30.16,SW,217,0.0,0.0,82,0.00,,---,0.00,VWS V14.01,2013-01-16 03:52:00,
2013-01-15 21:57:00,14.2,9.9,30.16,SW,217,0.0,0.0,83,0.00,,---,0.00,VWS V14.01,2013-01-16 03:57:00,
2013-01-15 22:02:00,14.1,10.1,30.15,SW,217,0.0,0.0,84,0.00,,---,0.00,VWS V14.01,2013-01-16 04:02:00,
2013-01-15 22:07:00,14.1,10.3,30.16,SW,217,0.0,0.0,85,0.00,,---,0.00,VWS V14.01,2013-01-16 04:07:00,
2013-01-15 22:11:00,14.4,10.6,30.16,SW,216,0.0,0.0,85,0.00,,---,0.00,VWS V14.01,2013-01-16 04:11:00,
2013-01-15 22:17:00,14.4,10.6,30.15,SW,216,0.0,0.0,85,0.00,,---,0.00,VWS V14.01,2013-01-16 04:17:00,
2013-01-15 22:21:00,14.3,10.3,30.14,SW,217,0.0,0.0,84,0.00,,---,0.00,VWS V14.01,2013-01-16 04:21:00,
2013-01-15 22:26:00,14.1,10.1,30.14,SW,217,0.0,0.0,84,0.00,,---,0.00,VWS V14.01,2013-01-16 04:26:00,
2013-01-15 22:31:00,13.9,9.9,30.14,SW,217,0.0,0.0,84,0.00,,---,0.00,VWS V14.01,2013-01-16 04:31:00,
2013-01-15 22:36:00,13.6,9.6,30.14,SW,217,0.0,0.0,84,0.00,,---,0.00,VWS V14.01,2013-01-16 04:36:00,
2013-01-15 22:41:00,13.5,9.7,30.14,SW,217,0.0,0.0,85,0.00,,---,0.00,VWS V14.01,2013-01-16 04:41:00,
2013-01-15 22:46:00,13.3,9.6,30.14,SW,216,0.0,0.0,85,0.00,,---,0.00,VWS V14.01,2013-01-16 04:46:00,
2013-01-15 22:51:00,13.3,9.6,30.14,SW,216,0.0,0.0,85,0.00,,---,0.00,VWS V14.01,2013-01-16 04:51:00,
2013-01-15 22:56:00,13.2,9.4,30.13,SW,217,0.0,0.0,85,0.00,,---,0.00,VWS V14.01,2013-01-16 04:56:00,
2013-01-15 23:00:00,13.1,9.4,30.13,SW,217,0.0,0.0,85,0.00,,---,0.00,VWS V14.01,2013-01-16 05:00:00,
2013-01-15 23:02:00,13.1,9.4,30.14,SW,217,0.0,0.0,85,0.00,,---,0.00,VWS V14.01,2013-01-16 05:02:00,
2013-01-15 23:07:00,13.2,9.7,30.14,SW,217,0.0,0.0,86,0.00,,---,0.00,VWS V14.01,2013-01-16 05:07:00,
2013-01-15 23:12:00,13.5,10.0,30.13,SW,217,0.0,0.0,86,0.00,,---,0.00,VWS V14.01,2013-01-16 05:12:00,
2013-01-15 23:17:00,13.5,10.0,30.13,SW,217,0.0,0.0,86,0.00,,---,0.00,VWS V14.01,2013-01-16 05:17:00,
2013-01-15 23:22:00,13.4,9.6,30.13,SW,216,0.0,0.0,85,0.00,,---,0.00,VWS V14.01,2013-01-16 05:22:00,
2013-01-15 23:27:00,13.3,9.6,30.13,SW,217,0.0,0.0,85,0.00,,---,0.00,VWS V14.01,2013-01-16 05:27:00,
2013-01-15 23:32:00,13.2,9.4,30.13,SW,217,0.0,0.0,85,0.00,,---,0.00,VWS V14.01,2013-01-16 05:32:00,
2013-01-15 23:37:00,13.3,9.8,30.13,SW,217,0.0,0.0,86,0.00,,---,0.00,VWS V14.01,2013-01-16 05:37:00,
2013-01-15 23:42:00,13.3,9.8,30.13,SW,217,0.0,0.0,86,0.00,,---,0.00,VWS V14.01,2013-01-16 05:42:00,
2013-01-15 23:47:00,13.3,9.8,30.13,SW,217,0.0,0.0,86,0.00,,---,0.00,VWS V14.01,2013-01-16 05:47:00,
2013-01-15 23:52:00,13.0,9.2,30.13,SW,216,0.0,0.0,85,0.00,,---,0.00,VWS V14.01,2013-01-16 05:52:00,
2013-01-15 23:57:00,12.8,9.1,30.13,SW,217,0.0,0.0,85,0.00,,---,0.00,VWS V14.01,2013-01-16 05:57:00,